| time (UTC) | temp F | wind direction | speed MPH | gust MPH | rain 1hr in | rain 24hr in | rain mn in | humidity % | barometer mb |
| 20260505124050 | 62 | 0 | 0.0 | 0.0 | 0.00 | 0.00 | 0.00 | 96 | |
| 20260505123150 | 61 | 0 | 0.0 | 0.0 | 0.00 | 0.00 | 0.00 | 96 | |
| 20260505122250 | 59 | 0 | 0.0 | 0.0 | 0.00 | 0.00 | 0.00 | 95 | |
| 20260505121350 | 57 | 0 | 0.0 | 0.0 | 0.00 | 0.00 | 0.00 | 95 | |
| 20260505120450 | 55 | 0 | 0.0 | 0.0 | 0.00 | 0.00 | 0.00 | 95 | |
| 20260505115550 | 54 | 0 | 0.0 | 0.0 | 0.00 | 0.00 | 0.00 | 95 | |
| 20260505113750 | 51 | 0 | 0.0 | 0.0 | 0.00 | 0.00 | 0.00 | 94 | |
| 20260505112850 | 50 | 0 | 0.0 | 0.0 | 0.00 | 0.00 | 0.00 | 94 | |
| 20260505111950 | 50 | 0 | 0.0 | 0.0 | 0.00 | 0.00 | 0.00 | 94 | |
| 20260505111050 | 49 | 0 | 0.0 | 0.0 | 0.00 | 0.00 | 0.00 | 94 | |
| 20260505110150 | 49 | 0 | 0.0 | 0.0 | 0.00 | 0.00 | 0.00 | 93 | |
| 20260505101650 | 50 | 0 | 0.0 | 0.0 | 0.00 | 0.00 | 0.00 | 93 | |
| 20260505100750 | 50 | 0 | 0.0 | 0.0 | 0.00 | 0.00 | 0.00 | 93 | |
| 20260505094950 | 50 | 0 | 0.0 | 0.0 | 0.00 | 0.00 | 0.00 | 93 | |
| 20260505094050 | 50 | 0 | 0.0 | 0.0 | 0.00 | 0.00 | 0.00 | 93 | |
| 20260505093150 | 50 | 0 | 0.0 | 0.0 | 0.00 | 0.00 | 0.00 | 93 | |
| 20260505084650 | 50 | 0 | 0.0 | 0.0 | 0.00 | 0.00 | 0.00 | 93 | |
| 20260505083750 | 50 | 0 | 0.0 | 0.0 | 0.00 | 0.00 | 0.00 | 93 | |
| 20260505082850 | 51 | 0 | 0.0 | 0.0 | 0.00 | 0.00 | 0.00 | 93 | |
| 20260505081950 | 51 | 0 | 0.0 | 0.0 | 0.00 | 0.00 | 0.00 | 92 | |
| 20260505081050 | 51 | 0 | 0.0 | 0.0 | 0.00 | 0.00 | 0.00 | 92 | |
| 20260505080150 | 52 | 0 | 0.0 | 0.0 | 0.00 | 0.00 | 0.00 | 92 | |
| 20260505075250 | 52 | 0 | 0.0 | 0.0 | 0.00 | 0.00 | 0.00 | 92 | |
| 20260505074350 | 52 | 0 | 0.0 | 0.0 | 0.00 | 0.00 | 0.00 | 92 | |
| 20260505073450 | 52 | 0 | 0.0 | 0.0 | 0.00 | 0.00 | 0.00 | 92 | |
| 20260505065850 | 53 | 0 | 0.0 | 0.0 | 0.00 | 0.00 | 0.00 | 91 | |
| 20260505064950 | 53 | 0 | 0.0 | 0.0 | 0.00 | 0.00 | 0.00 | 91 | |
| 20260505064050 | 54 | 0 | 0.0 | 0.0 | 0.00 | 0.00 | 0.00 | 91 | |
| 20260505063150 | 54 | 0 | 0.0 | 0.0 | 0.00 | 0.00 | 0.00 | 90 | |
| 20260505062250 | 54 | 0 | 0.0 | 0.0 | 0.00 | 0.00 | 0.00 | 90 | |
| 20260505061350 | 55 | 0 | 0.0 | 0.0 | 0.00 | 0.00 | 0.00 | 90 | |
| 20260505060450 | 55 | 0 | 0.0 | 0.0 | 0.00 | 0.00 | 0.00 | 90 | |
| 20260505055550 | 56 | 0 | 0.0 | 0.0 | 0.00 | 0.00 | 0.00 | 90 | |
| 20260505054650 | 56 | 0 | 0.0 | 0.0 | 0.00 | 0.00 | 0.00 | 89 | |
| 20260505052850 | 57 | 0 | 0.0 | 0.0 | 0.00 | 0.00 | 0.00 | 90 | |
| 20260505051950 | 57 | 0 | 0.0 | 0.0 | 0.00 | 0.00 | 0.00 | 90 | |
| 20260505050150 | 57 | 0 | 0.0 | 0.0 | 0.00 | 0.00 | 0.00 | 89 | |
| 20260505040750 | 60 | 0 | 0.0 | 0.0 | 0.00 | 0.00 | 0.00 | 87 | |
| 20260505035850 | 60 | 0 | 0.0 | 0.0 | 0.00 | 0.00 | 0.00 | 87 | |
| 20260505034950 | 61 | 0 | 0.0 | 0.0 | 0.00 | 0.00 | 0.00 | 86 | |
| 20260505034050 | 62 | 0 | 0.0 | 0.0 | 0.00 | 0.00 | 0.00 | 86 | |
| 20260505033150 | 62 | 0 | 0.0 | 0.0 | 0.00 | 0.00 | 0.00 | 85 | |
| 20260505032250 | 63 | 0 | 0.0 | 0.0 | 0.00 | 0.00 | 0.00 | 84 | |
| 20260505031350 | 64 | 188 | 0.0 | 2.0 | 0.00 | 0.00 | 0.00 | 83 | |
| 20260505030450 | 65 | 202 | 0.0 | 4.0 | 0.00 | 0.00 | 0.00 | 82 | |
| 20260505025550 | 65 | 214 | 0.0 | 4.0 | 0.00 | 0.00 | 0.00 | 83 | |
| 20260505024650 | 64 | 191 | 0.0 | 1.0 | 0.00 | 0.00 | 0.00 | 83 | |
| 20260505022850 | 64 | 194 | 0.0 | 1.0 | 0.00 | 0.00 | 0.00 | 83 | |
| 20260505021950 | 65 | 246 | 0.0 | 6.0 | 0.00 | 0.00 | 0.00 | 83 | |
| 20260505021050 | 64 | 257 | 0.0 | 6.0 | 0.00 | 0.00 | 0.00 | 84 | |
| 20260505020150 | 64 | 184 | 0.0 | 1.0 | 0.00 | 0.00 | 0.00 | 84 | |
| 20260505015250 | 64 | 203 | 0.0 | 2.0 | 0.00 | 0.00 | 0.00 | 84 | |
| 20260505014350 | 64 | 253 | 0.0 | 4.0 | 0.00 | 0.00 | 0.00 | 84 | |
| 20260505013450 | 64 | 261 | 0.0 | 4.0 | 0.00 | 0.00 | 0.00 | 84 | |
| 20260505012550 | 64 | 0 | 0.0 | 0.0 | 0.00 | 0.00 | 0.00 | 83 | |
| 20260505010750 | 65 | 0 | 0.0 | 0.0 | 0.00 | 0.00 | 0.00 | 81 | |
| 20260505005850 | 66 | 188 | 0.0 | 1.0 | 0.00 | 0.00 | 0.00 | 79 | |
| 20260505004950 | 66 | 190 | 0.0 | 1.0 | 0.00 | 0.00 | 0.00 | 78 | |
| 20260505003150 | 67 | 186 | 0.0 | 1.0 | 0.00 | 0.00 | 0.00 | 75 | |
| 20260505002250 | 68 | 222 | 0.0 | 2.0 | 0.00 | 0.00 | 0.00 | 74 | |
| 20260505001350 | 68 | 230 | 0.0 | 4.0 | 0.00 | 0.00 | 0.00 | 73 | |
| 20260505000450 | 69 | 242 | 0.0 | 6.0 | 0.00 | 0.00 | 0.00 | 72 | |
| 20260504235550 | 70 | 218 | 1.0 | 4.0 | 0.00 | 0.00 | 0.00 | 71 | |
| 20260504234650 | 70 | 229 | 1.0 | 7.0 | 0.00 | 0.00 | 0.00 | 70 | |
| 20260504233750 | 71 | 224 | 1.0 | 5.0 | 0.00 | 0.00 | 0.00 | 69 | |
| 20260504231050 | 72 | 256 | 2.0 | 6.0 | 0.00 | 0.00 | 0.00 | 66 | |
| 20260504230150 | 72 | 250 | 2.0 | 8.0 | 0.00 | 0.00 | 0.00 | 65 | |
| 20260504224350 | 74 | 274 | 3.0 | 12.0 | 0.00 | 0.00 | 0.00 | 64 | |
| 20260504223450 | 74 | 252 | 2.0 | 8.0 | 0.00 | 0.00 | 0.00 | 62 | |
| 20260504221650 | 75 | 269 | 3.0 | 11.0 | 0.00 | 0.00 | 0.00 | 61 | |
| 20260504220750 | 75 | 257 | 3.0 | 11.0 | 0.00 | 0.00 | 0.00 | 59 | |
| 20260504214950 | 75 | 273 | 3.0 | 12.0 | 0.00 | 0.00 | 0.00 | 58 | |
| 20260504213150 | 76 | 277 | 3.0 | 11.0 | 0.00 | 0.00 | 0.00 | 57 | |
| 20260504212250 | 76 | 271 | 3.0 | 10.0 | 0.00 | 0.00 | 0.00 | 55 | |
| 20260504210450 | 76 | 266 | 3.0 | 12.0 | 0.00 | 0.00 | 0.00 | 52 | |
| 20260504205550 | 76 | 235 | 2.0 | 8.0 | 0.00 | 0.00 | 0.00 | 53 | |
| 20260504204650 | 77 | 269 | 3.0 | 10.0 | 0.00 | 0.00 | 0.00 | 54 | |
| 20260504203750 | 77 | 273 | 3.0 | 13.0 | 0.00 | 0.00 | 0.00 | 53 | |
| 20260504202850 | 77 | 278 | 3.0 | 12.0 | 0.00 | 0.00 | 0.00 | 50 | |
| 20260504201950 | 77 | 262 | 2.0 | 10.0 | 0.00 | 0.00 | 0.00 | 49 | |
| 20260504201050 | 77 | 262 | 2.0 | 8.0 | 0.00 | 0.00 | 0.00 | 49 | |
| 20260504200150 | 77 | 263 | 2.0 | 11.0 | 0.00 | 0.00 | 0.00 | 48 | |
| 20260504195250 | 77 | 261 | 3.0 | 12.0 | 0.00 | 0.00 | 0.00 | 47 | |
| 20260504192550 | 77 | 261 | 3.0 | 11.0 | 0.00 | 0.00 | 0.00 | 47 | |
| 20260504191650 | 77 | 272 | 2.0 | 10.0 | 0.00 | 0.00 | 0.00 | 46 | |
| 20260504185850 | 77 | 261 | 3.0 | 12.0 | 0.00 | 0.00 | 0.00 | 49 | |
| 20260504184950 | 76 | 276 | 3.0 | 10.0 | 0.00 | 0.00 | 0.00 | 49 | |
| 20260504184050 | 76 | 256 | 3.0 | 10.0 | 0.00 | 0.00 | 0.00 | 50 | |
| 20260504183150 | 77 | 263 | 2.0 | 10.0 | 0.00 | 0.00 | 0.00 | 50 | |
| 20260504182250 | 77 | 265 | 3.0 | 12.0 | 0.00 | 0.00 | 0.00 | 53 | |
| 20260504181350 | 77 | 266 | 3.0 | 8.0 | 0.00 | 0.00 | 0.00 | 49 | |
| 20260504180450 | 77 | 279 | 4.0 | 13.0 | 0.00 | 0.00 | 0.00 | 50 | |
| 20260504175550 | 77 | 249 | 3.0 | 13.0 | 0.00 | 0.00 | 0.00 | 46 | |
| 20260504174650 | 78 | 265 | 2.0 | 8.0 | 0.00 | 0.00 | 0.00 | 50 | |
| 20260504173750 | 77 | 274 | 2.0 | 10.0 | 0.00 | 0.00 | 0.00 | 53 | |
| 20260504172850 | 77 | 267 | 3.0 | 11.0 | 0.00 | 0.00 | 0.00 | 49 | |
| 20260504171950 | 78 | 238 | 2.0 | 7.0 | 0.00 | 0.00 | 0.00 | 48 | |
| 20260504171050 | 79 | 248 | 1.0 | 5.0 | 0.00 | 0.00 | 0.00 | 45 | |
| 20260504170150 | 78 | 247 | 1.0 | 10.0 | 0.00 | 0.00 | 0.00 | 50 | |
| 20260504150450 | 76 | 193 | 0.0 | 5.0 | 0.00 | 0.00 | 0.00 | 46 | |
| 20260504141050 | 71 | 182 | 0.0 | 2.0 | 0.00 | 0.00 | 0.00 | 70 | |
| 20260504140150 | 69 | 159 | 0.0 | 1.0 | 0.00 | 0.00 | 0.00 | 70 | |
| 20260504130750 | 60 | 0 | 0.0 | 0.0 | 0.00 | 0.00 | 0.00 | 95 |